Погода в Рубцовске

Погода в Рубцовске : погода сейчас, прогноз погоды и архив. Всё, что Вы хотите узнать о погоде в Рубцовске!

Хотите узнать прогноз погоды в Рубцовске? Тогда Вам сюда: Погода в Рубцовске

Поиск расширенной информации на нашем сайте:

Полезная информация: ульяновская фабрика межкомнатных дверей

Другие новости

Новости СМИ2

Главная страница сайта

Новости сайта

02.10.2013

Напоминаем, что на нашем новом сайте вы можете получить высокодетализированные прогнозы погоды по пунктам России, СНГ и мира (включающие важные для авиации метеовеличины, такие как направление и скорость ветра, видимость, явления погоды, количество и форма облачности, нижняя и верхняя граница облачности), а также ознакомиться с разнообразными материалами по авиационной метеорологии и подборкой полезных ссылок на эту тему.

Сайт Метеоцентр.Азия посвящён разработке технологий оптимизации авиаметеорологического обслуживания, включая проектирование и перспективное создание нескольких автоматизированных авиаметеорологических систем:
- система выпуска высокодетальных прогностических карт явлений погоды для нижнего воздушного пространства по России и ближнему зарубежью;
- система верификации прогнозов TAF (выпускаемых синоптиками официальных АМСГ РФ и ближнего зарубежья) и AUTOTAF (выпускаемых сайтом Метеоцентр.Азия) - выявление ошибок, онлайн-сопоставление с фактической погодой METAR, автоматическое внесение коррективов в прогнозы при резком отклонении фактической погоды от прогноза, подсчёт оправдываемости прогнозов по элементам и в целом;
- система обработки, анализа и отображения авиаметеорологической информации для применения провайдерами метеорологической информации.

Рекомендуем: нужен офис? купить офис в раойне 1-я Брестская улица интересные предложения

Погода в Рубцовске - сегодня

Время (UTC), дата Ветер
(°,м/с) 
Видим.   Явления Облачность Т
(°С)
Тd
(°С)
f(%) Тe
(°С)
Pmin
(гПа)
dP
(гПа)
Po
(мм)
O2
(г/м3)
Тmin Tmax R s Состояние
почвы
03 24.02.17 020 (С) 4000 м  дымка  10/0 верхняя 
[Cc]
-17.6 -20.2 80 -18  1029.1  -0.4  750  324           
06 24.02.17 170 (Ю) 7-10{10}  20000 м    10/0 верхняя 
[Cs]
-5.1 -11.7 60 -10  1026.9  -0.7  749  309           
09 24.02.17 180 (Ю) 5{10}  20000 м    1/0 верхняя 
[Ci sp]
-2.6 -9.3 60 -6  1025.8  -0.9  748  305           
12 24.02.17 200 (Ю) 20000 м    8/0 верхняя 
[Ci sp]
-6.7 -10.3 75 -9  1026.1  -0.1  748  310    -2.4       
15 24.02.17 190 (Ю) 20000 м    1/0 верхняя 
[Ci sp]
-8.1 -11.7 75 -10  1025.7  -0.6  748  312           
18 24.02.17 190 (Ю) 20000 м    ясно 
-9.8 -13.3 76 -14  1025.3  -0.5  748  314           
21 24.02.17 200 (Ю) 20000 м    ясно 
-12.4 -14.5 84 -14  1025.4  -0.2  747  317           
00 25.02.17 180 (Ю) 20000 м    ясно 
-7.3 -12.4 67 -12  1024.6  -0.3  747  310  -14.7      13  неравномерный
сухой снег
100% 
03 25.02.17 170 (Ю) 6{10}  20000 м    10/0 верхняя 
[Ci sp]
-4.7 -10.7 63 -9  1024.3  747  307           
06 25.02.17 180 (Ю) 7{11}  20000 м    10/0 верхняя 
[Ci sp]
-1.4 -8.4 59 -6  1024.3  0.3  747  304           
09 25.02.17 180 (Ю) 7{12}  20000 м    10/0 верхняя 
[Cs]
+0.3 -6.2 62 -4  1023  -1  747  301           
12 25.02.17 190 (Ю) 4{10}  20000 м    10/0 верхняя 
[Cs]
-1.4 -5.7 72 -4  1023.6  0.4  747  303    +0.5       
15 25.02.17 180 (Ю) 20000 м    10/0 верхняя 
[Ci sp]
-3.3 -7.5 73 -6  1024.1  0.2  747  305           
18 25.02.17 240 (ЮЗ) 20000 м    ясно 
-9.4 -11.7 83 -13  1025.6  0.9  748  313           
21 25.02.17 210 (ЮЗ) 20000 м    ясно 
-11.5 -13.1 88 -11  1026.6  0.7  748  316           
00 26.02.17 200 (Ю) 20000 м    ясно 
-13.9 -15.5 88 -16  1028.3  1.4  749  319  -14.3      12  неравномерный
сухой снег
100% 
03 26.02.17 180 (Ю) 10 км    10/0 верхняя 
[Ci fib]
-7.1 -10 80 -11  1029.9  2.3  751  312  -14.6         
06 26.02.17 200 (Ю) 0500 м  туман  10/10 240 м 
[St]
-6.3 -7.6 90 -11  1031.2  1.4  752  311           
09 26.02.17 190 (Ю) 6{11}  10 км  {туман}  10/10 1200 м 
[Sc]
-2.2 -4.1 87 -6  1031.7  0.9  753  306           
12 26.02.17 210 (ЮЗ) 4000 м  дымка{туман}  10/10 600 м 
[Sc]
-1.7 -3.3 89 -4  1032.9  1.2  754  306    -1.7       
15 26.02.17 200 (Ю) 4000 м  дымка  10/10 630 м 
[Sc]
-2 -4.2 85 -5  1032.8  -0.1  754  306           
18 26.02.17 170 (Ю) 4000 м  дымка  ясно 
-3.3 -5.5 85 -7  1032.7  -0.3  753  308           
21 26.02.17 230 (ЮЗ) 4000 м  дымка  ясно 
-9.7 -11.2 89 -11  1033.1  -0.3  753  316           
00 27.02.17 250 (З) 4000 м  дымка  ясно 
-12.5 -14.3 86 -15  1033.2  -0.2  753  319  -12.5      12  неравномерный
сухой снег
100% 
03 27.02.17 250 (З) 10 км    5/0 верхняя 
[Ci fib]
-11.3 -13 87 -11  1033.3  0.3  753  318  -12.9         
Время (UTC), дата Ветер
(°,м/с) 
Видим.   Явления Облачность Т
(°С)
Тd
(°С)
f(%) Тe
(°С)
Pmin
(гПа)
dP
(гПа)
Po
(мм)
O2
(г/м3)
Тmin Tmax R s Состояние
почвы

Для получения пояснительной информации подведите курсор к названию столбца.

ПОГОДА в Рубцовске - архив

Всё, что Вы хотите узнать о погоде в Рубцовске - удобно и подробно!

Выберите нужную дату (начиная с 1 января 2015* года) и нажмите кнопку "Найти".
Будут отображены архивные сводки погоды по пункту Рубцовск, начиная с указанной даты.


Отображать данные в формате CSV (для использования в таблицах Excel)


Внимание! Наш архив погоды предназначен исключительно для личного некоммерческого использования в познавательных целях. Если Вам необходимы официальные справки о состоянии погоды (для производственных, юридических, коммерческих и т.п. целей), обращайтесь в органы Росгидромета.

*Примечание: данная дата относится к архиву по метеостанциям СССР (Россия, СНГ, Балтия).
Архив по метеостанциям Зарубежной Европы и Азии (кроме Китая) хранится 10 дней, по другим регионам земного шара (Китай, Африка, Америка, Австралия, Океания) - 1 день.

Рубцовск - район местоположения метеостанции


Название, широта, долгота, высота метеостанции:
Рубцовск 51.5°ш. 81.2°д. 219 м над ур. моря [Российская Федерация]

Дополнительная информация

В oтличие oт бoльшинства пoгoдных сайтoв мы публикуем пoдрoбную метеoинфoрмацию в детальнoм прoфессиoнальнoм фoрмате.

Характеристики температуры и влажнoсти вoздуха измеряются на высoте 2 м в тени вдали oт зданий и деревьев.
Скoрoсть ветра измеряется на высoте 10 м (на урoвне рoста челoвека скoрoсть ветра ниже в 1.5-2 раза). Если метеoстанция нахoдится в гoрoде или в лесу, тo скoрoсть ветра занижена на 2-4 м/с пo сравнению с oткрытым местoм. Скoрoсть ветра над акватoриями крупных рек и oзёр, а также на вершинах хoлмoв на 2-5 м/с выше, чем в oбычных услoвиях.
Атмoсфернoе давление в разных тoчках местнoсти мoжет значительнo oтличаться oт давления на метеoстанции, в зависимoсти oт услoвий рельефа (при пoдъёме на 10 м давление пoнижается примернo на 1 мм рт.ст.).